TimeCST,TemperatureF,Dew PointF,Humidity,Sea Level PressureIn,VisibilityMPH,Wind Direction,Wind SpeedMPH,Gust SpeedMPH,PrecipitationIn,Events,Conditions,WindDirDegrees,DateUTC
12:55 AM,36.3,28.9,75,30.25,10.0,South,12.7,-,N/A,,Overcast,180,2013-01-05 06:55:00
1:46 AM,35.6,30.2,81,30.24,10.0,South,11.5,-,N/A,,Mostly Cloudy,170,2013-01-05 07:46:00
1:55 AM,36.0,30.6,81,30.24,10.0,South,10.4,-,0.00,,Overcast,170,2013-01-05 07:55:00
2:01 AM,35.6,32.0,87,30.24,10.0,South,12.7,-,N/A,,Overcast,170,2013-01-05 08:01:00
2:55 AM,35.8,32.4,87,30.23,10.0,South,13.8,-,0.00,,Overcast,170,2013-01-05 08:55:00
3:55 AM,35.8,32.9,89,30.22,10.0,SSE,12.7,-,N/A,,Mostly Cloudy,160,2013-01-05 09:55:00
4:55 AM,35.8,32.0,86,30.19,10.0,South,15.0,-,N/A,,Overcast,170,2013-01-05 10:55:00
5:55 AM,35.6,32.4,88,30.19,10.0,South,12.7,-,N/A,,Overcast,170,2013-01-05 11:55:00
6:55 AM,35.4,32.0,87,30.19,10.0,South,11.5,-,N/A,,Overcast,170,2013-01-05 12:55:00
7:55 AM,36.0,32.5,87,30.19,10.0,South,12.7,-,N/A,,Overcast,190,2013-01-05 13:55:00
8:55 AM,36.7,32.9,86,30.21,10.0,South,12.7,-,N/A,,Overcast,180,2013-01-05 14:55:00
9:55 AM,37.6,33.3,84,30.21,10.0,South,11.5,-,N/A,,Overcast,180,2013-01-05 15:55:00
10:55 AM,39.7,33.1,77,30.22,10.0,SSW,15.0,-,N/A,,Overcast,200,2013-01-05 16:55:00
11:55 AM,43.2,30.9,62,30.18,10.0,SW,19.6,-,N/A,,Clear,230,2013-01-05 17:55:00
12:55 PM,44.8,30.4,57,30.14,10.0,SW,15.0,-,N/A,,Clear,230,2013-01-05 18:55:00
1:55 PM,46.4,28.6,50,30.12,10.0,SW,16.1,21.9,N/A,,Clear,230,2013-01-05 19:55:00
2:55 PM,47.3,28.2,48,30.12,10.0,SW,17.3,-,N/A,,Clear,220,2013-01-05 20:55:00
3:55 PM,47.3,28.4,48,30.16,10.0,WSW,13.8,-,N/A,,Clear,240,2013-01-05 21:55:00
4:55 PM,45.7,27.5,49,30.18,10.0,WNW,12.7,-,N/A,,Clear,290,2013-01-05 22:55:00
5:55 PM,39.6,22.6,51,30.22,10.0,West,9.2,-,N/A,,Clear,280,2013-01-05 23:55:00
6:55 PM,35.6,20.3,54,30.25,10.0,WNW,13.8,-,N/A,,Clear,300,2013-01-06 00:55:00
7:55 PM,33.4,20.1,58,30.26,10.0,WNW,9.2,-,N/A,,Clear,300,2013-01-06 01:55:00
8:55 PM,33.1,21.0,61,30.27,10.0,WNW,5.8,-,N/A,,Clear,300,2013-01-06 02:55:00
9:55 PM,33.6,22.1,63,30.28,10.0,WNW,11.5,-,N/A,,Clear,290,2013-01-06 03:55:00
10:55 PM,34.3,23.4,64,30.30,10.0,WNW,11.5,-,N/A,,Clear,300,2013-01-06 04:55:00
11:55 PM,33.1,24.1,70,30.30,10.0,NW,6.9,-,N/A,,Clear,310,2013-01-06 05:55:00